Weather History for K20U - October, 2011

Change the Weather History Date:

Friday, October 21, 2011

  Actual Average (KDIK) Record (KDIK)
Temperature  
Mean Temperature 48 °F 42 °F  
Max Temperature 59 °F 54 °F 82 °F (1927)
Min Temperature 35 °F 30 °F 11 °F (1906)
Degree Days  
Heating Degree Days 17 23  
Month to date heating degree days 399  
Since 1 July heating degree days 753  
Cooling Degree Days 0 0  
Month to date cooling degree days 0  
Year to date cooling degree days 418  
Moisture  
Dew Point 35 °F    
Average Humidity 64    
Maximum Humidity 87    
Minimum Humidity 42    
Precipitation  
Precipitation 0.00 in 0.03 in 1.09 in (1953)
Month to date precipitation 0.91  
Year to date precipitation 14.67  
Sea Level Pressure  
Sea Level Pressure 30.07 in    
Wind  
Wind Speed 7 mph (WNW)    
Max Wind Speed 14 mph    
Max Gust Speed -    
Visibility 10 miles    
Events      
T = Trace of Precipitation, MM = Missing Value Source: NWS Daily Summary

Daily Weather History Graph

Daily Weather History Graph

Search for Another Location

Airport or City:

Trip Planner

Search our weather history database for the weather conditions in past years. The results will help you decide how hot, cold, wet, or windy it might be!

Date:

Astronomy

Oct. 21, 2011 Rise Set
Actual Time 7:22 AM MDT 5:58 PM MDT
Civil Twilight 6:51 AM MDT 6:29 PM MDT
Nautical Twilight 6:15 AM MDT 7:04 PM MDT
Astronomical Twilight 5:40 AM MDT 7:39 PM MDT
Moon 12:52 AM MDT (10/21) 3:03 PM MDT (10/21)
Length of Visible Light 11h 38m
Length of Day
10h 36m
Waning Crescent, 33% of the Moon is Illuminated
Oct 21
Waning Crescent
Oct 26
New
Nov 2
First Quarter
Nov 10
Full
Nov 18
Last Quarter

Hourly Weather History & Observations

Time (MDT) Temp. Windchill Dew Point Humidity Pressure Visibility Wind Dir Wind Speed Gust Speed Precip Events Conditions
12:15 AM 44.6 °F 39.7 °F 33.8 °F 66% 29.96 in 10.0 mi West 9.2 mph - N/A   Clear
12:35 AM 44.6 °F 40.7 °F 33.8 °F 66% 29.96 in 10.0 mi WSW 6.9 mph - N/A   Clear
12:55 AM 44.6 °F 39.7 °F 33.8 °F 66% 29.97 in 10.0 mi WSW 9.2 mph - N/A   Clear
1:15 AM 44.6 °F 39.2 °F 35.6 °F 71% 29.97 in 10.0 mi WSW 10.4 mph - N/A   Clear
1:35 AM 44.6 °F 39.7 °F 33.8 °F 66% 29.97 in 10.0 mi West 9.2 mph - N/A   Clear
1:55 AM 42.8 °F 37.5 °F 33.8 °F 70% 29.98 in 10.0 mi West 9.2 mph - N/A   Clear
2:15 AM 42.8 °F 37.5 °F 33.8 °F 70% 29.99 in 10.0 mi West 9.2 mph - N/A   Clear
2:35 AM 42.8 °F 38.0 °F 33.8 °F 70% 29.99 in 10.0 mi West 8.1 mph - N/A   Clear
3:15 AM 41.0 °F 33.9 °F 35.6 °F 81% 29.99 in 10.0 mi West 12.7 mph - N/A   Scattered Clouds
3:35 AM 41.0 °F 33.5 °F 33.8 °F 76% 30.00 in 10.0 mi West 13.8 mph - N/A   Mostly Cloudy
4:15 AM 41.0 °F 34.7 °F 33.8 °F 76% 30.00 in 10.0 mi West 10.4 mph - N/A   Clear
4:55 AM 41.0 °F 34.3 °F 35.6 °F 81% 30.02 in 10.0 mi West 11.5 mph - N/A   Scattered Clouds
5:15 AM 41.0 °F 34.7 °F 35.6 °F 81% 30.03 in 10.0 mi West 10.4 mph - N/A   Mostly Cloudy
5:35 AM 41.0 °F 37.1 °F 35.6 °F 81% 30.04 in 10.0 mi West 5.8 mph - N/A   Scattered Clouds
5:55 AM 41.0 °F 36.4 °F 35.6 °F 81% 30.04 in 10.0 mi West 6.9 mph - N/A   Clear
6:15 AM 41.0 °F 36.4 °F 35.6 °F 81% 30.04 in 10.0 mi WSW 6.9 mph - N/A   Scattered Clouds
6:35 AM 41.0 °F 35.8 °F 35.6 °F 81% 30.05 in 10.0 mi West 8.1 mph - N/A   Overcast
6:55 AM 41.0 °F 36.4 °F 35.6 °F 81% 30.05 in 10.0 mi West 6.9 mph - N/A   Mostly Cloudy
7:15 AM 39.2 °F 35.9 °F 33.8 °F 81% 30.05 in 10.0 mi West 4.6 mph - N/A   Partly Cloudy
7:35 AM 39.2 °F 37.0 °F 33.8 °F 81% 30.06 in 10.0 mi West 3.5 mph - N/A   Clear
7:55 AM 39.2 °F - 33.8 °F 81% 30.06 in 10.0 mi Calm Calm - N/A   Scattered Clouds
8:15 AM 39.2 °F - 33.8 °F 81% 30.07 in 10.0 mi Calm Calm - N/A   Partly Cloudy
8:35 AM 41.0 °F 37.1 °F 35.6 °F 81% 30.07 in 10.0 mi West 5.8 mph - N/A   Clear
9:15 AM 44.6 °F - 35.6 °F 71% 30.09 in 10.0 mi Calm Calm - N/A   Clear
9:35 AM 46.4 °F 42.4 °F 37.4 °F 71% 30.09 in 10.0 mi West 8.1 mph - N/A   Clear
9:55 AM 50.0 °F - 37.4 °F 62% 30.10 in 10.0 mi WNW 8.1 mph - N/A   Clear
10:15 AM 53.6 °F - 37.4 °F 54% 30.09 in 10.0 mi West 10.4 mph - N/A   Clear
10:35 AM 53.6 °F - 35.6 °F 51% 30.10 in 10.0 mi West 12.7 mph - N/A   Clear
10:55 AM 53.6 °F - 35.6 °F 51% 30.10 in 10.0 mi WNW 9.2 mph - N/A   Partly Cloudy
11:15 AM 53.6 °F - 35.6 °F 51% 30.10 in 10.0 mi WNW 9.2 mph - N/A   Clear
11:35 AM 55.4 °F - 35.6 °F 47% 30.11 in 10.0 mi NW 10.4 mph - N/A   Clear
11:55 AM 53.6 °F - 35.6 °F 51% 30.11 in 10.0 mi NW 9.2 mph - N/A   Clear
12:15 PM 55.4 °F - 35.6 °F 47% 30.11 in 10.0 mi NW 5.8 mph - N/A   Clear
12:35 PM 55.4 °F - 35.6 °F 47% 30.11 in 10.0 mi WNW 8.1 mph - N/A   Clear
12:55 PM 57.2 °F - 35.6 °F 44% 30.11 in 10.0 mi West 6.9 mph - N/A   Clear
1:15 PM 57.2 °F - 35.6 °F 44% 30.10 in 10.0 mi NNW 6.9 mph - N/A   Clear
1:35 PM 57.2 °F - 35.6 °F 44% 30.10 in 10.0 mi WNW 9.2 mph - N/A   Clear
1:55 PM 59.0 °F - 35.6 °F 42% 30.09 in 10.0 mi NW 8.1 mph - N/A   Clear
2:15 PM 59.0 °F - 35.6 °F 42% 30.09 in 10.0 mi NW 9.2 mph - N/A   Clear
2:35 PM 57.2 °F - 35.6 °F 44% 30.09 in 10.0 mi NW 10.4 mph - N/A   Clear
2:55 PM 57.2 °F - 35.6 °F 44% 30.09 in 10.0 mi NW 6.9 mph - N/A   Clear
3:15 PM 59.0 °F - 35.6 °F 42% 30.09 in 10.0 mi NW 8.1 mph - N/A   Clear
3:35 PM 59.0 °F - 35.6 °F 42% 30.09 in 10.0 mi North 6.9 mph - N/A   Clear
3:55 PM 59.0 °F - 35.6 °F 42% 30.09 in 10.0 mi NW 5.8 mph - N/A   Clear
4:15 PM 57.2 °F - 35.6 °F 44% 30.09 in 10.0 mi West 3.5 mph - N/A   Clear
4:35 PM 59.0 °F - 35.6 °F 42% 30.09 in 10.0 mi West 6.9 mph - N/A   Scattered Clouds
4:55 PM 57.2 °F - 37.4 °F 48% 30.09 in 10.0 mi North 4.6 mph - N/A   Overcast
5:15 PM 57.2 °F - 37.4 °F 48% 30.09 in 9.0 mi NW 4.6 mph - N/A   Mostly Cloudy
5:35 PM 55.4 °F - 35.6 °F 47% 30.09 in 10.0 mi NW 4.6 mph - N/A   Scattered Clouds
5:55 PM 53.6 °F - 35.6 °F 51% 30.09 in 10.0 mi NW 4.6 mph - N/A   Partly Cloudy
6:15 PM 50.0 °F - 35.6 °F 58% 30.10 in 10.0 mi Calm Calm - N/A   Clear
6:35 PM 44.6 °F - 35.6 °F 71% 30.10 in 10.0 mi Calm Calm - N/A   Clear
6:55 PM 41.0 °F - 33.8 °F 76% 30.10 in 10.0 mi Calm Calm - N/A   Clear
7:15 PM 41.0 °F 39.0 °F 33.8 °F 76% 30.10 in 10.0 mi SW 3.5 mph - N/A   Clear
7:35 PM 39.2 °F - 33.8 °F 81% 30.10 in 10.0 mi Calm Calm - N/A   Partly Cloudy
7:55 PM 39.2 °F - 32.0 °F 75% 30.10 in 10.0 mi Calm Calm - N/A   Partly Cloudy
8:15 PM 39.2 °F - 32.0 °F 75% 30.10 in 10.0 mi Calm Calm - N/A   Clear
8:35 PM 37.4 °F - 33.8 °F 87% 30.10 in 10.0 mi Calm Calm - N/A   Clear
9:15 PM 35.6 °F 32.8 °F 32.0 °F 87% 30.10 in 10.0 mi SSE 3.5 mph - N/A   Clear
9:35 PM 35.6 °F 32.8 °F 32.0 °F 87% 30.10 in 10.0 mi South 3.5 mph - N/A   Clear
9:55 PM 35.6 °F 30.7 °F 32.0 °F 87% 30.10 in 10.0 mi South 5.8 mph - N/A   Clear
10:15 PM 37.4 °F 32.8 °F 32.0 °F 81% 30.09 in 10.0 mi South 5.8 mph - N/A   Partly Cloudy
10:35 PM 35.6 °F 31.7 °F 32.0 °F 87% 30.08 in 10.0 mi SSE 4.6 mph - N/A   Clear
10:55 PM 35.6 °F 31.7 °F 32.0 °F 87% 30.08 in 10.0 mi South 4.6 mph - N/A   Clear
11:15 PM 35.6 °F 30.7 °F 32.0 °F 87% 30.08 in 10.0 mi South 5.8 mph - N/A   Clear
11:35 PM 35.6 °F 31.7 °F 32.0 °F 87% 30.08 in 10.0 mi South 4.6 mph - N/A   Scattered Clouds
11:55 PM 35.6 °F 30.7 °F 33.8 °F 93% 30.07 in 9.0 mi SSE 5.8 mph - N/A   Mostly Cloudy